DLH105 LSZB-EBBR

Flight info

Callsign DLH105
Flight time 1h 7m
Altitude 18000
Route KONOL Z59 LUMEL Z600 HR DCT EDOPI DCT GIVOR/N0385F170 DCT SORAL/N0380F160 DCT IBERA DCT LIMGO DCT DIK Y37 BATTY
Aircraft A320/M-SDE3FGHIRWY/LB1

Departure

Time 2026-04-26 16:38
Airport Bern Airport (LSZB)

Arrival

Time 2026-04-26 17:46
Airport Brussels Airport (EBBR)
Time Latitude Longitude Altitude Speed Heading
2026-04-26 16:34 46.91316 7.50020 1681 ft 0 kts 143°
2026-04-26 16:35 46.91304 7.50032 1675 ft 4 kts 143°
2026-04-26 16:36 46.91267 7.50069 1702 ft 9 kts 158°
2026-04-26 16:36 46.91201 7.50120 1702 ft 13 kts 145°
2026-04-26 16:36 46.91126 7.50214 1707 ft 14 kts 138°
2026-04-26 16:36 46.91060 7.50297 1705 ft 12 kts 143°
2026-04-26 16:37 46.90993 7.50341 1705 ft 10 kts 174°
2026-04-26 16:37 46.90929 7.50340 1698 ft 9 kts 202°
2026-04-26 16:37 46.90945 7.50284 1701 ft 13 kts 317°
2026-04-26 16:37 46.91090 7.50115 1702 ft 67 kts 321°
2026-04-26 16:38 46.91900 7.49115 1721 ft 154 kts 319°
2026-04-26 16:38 46.92723 7.48063 2391 ft 159 kts 320°
2026-04-26 16:38 46.93291 7.47335 2844 ft 163 kts 319°
2026-04-26 16:38 46.94120 7.46272 3421 ft 159 kts 323°
2026-04-26 16:39 46.95014 7.45206 3750 ft 175 kts 326°
2026-04-26 16:39 46.96025 7.44034 4060 ft 191 kts 327°
2026-04-26 16:39 46.97097 7.42837 4534 ft 197 kts 335°
2026-04-26 16:39 46.98421 7.42141 4809 ft 209 kts 348°
2026-04-26 16:40 46.99836 7.41544 5243 ft 213 kts 347°
2026-04-26 16:40 47.01319 7.40916 5508 ft 233 kts 346°
2026-04-26 16:40 47.02960 7.40216 5801 ft 257 kts 346°
2026-04-26 16:40 47.04727 7.39455 6406 ft 269 kts 345°
2026-04-26 16:41 47.06536 7.38670 7144 ft 274 kts 344°
2026-04-26 16:41 47.08384 7.37869 7904 ft 278 kts 343°
2026-04-26 16:41 47.10253 7.37059 8664 ft 282 kts 343°
2026-04-26 16:41 47.12124 7.36247 9432 ft 286 kts 342°
2026-04-26 16:42 47.14052 7.35418 10207 ft 290 kts 342°
2026-04-26 16:42 47.16053 7.34560 10532 ft 311 kts 342°
2026-04-26 16:42 47.18201 7.33630 10714 ft 334 kts 342°
2026-04-26 16:42 47.20519 7.32624 11028 ft 349 kts 342°
2026-04-26 16:43 47.22843 7.31619 11624 ft 354 kts 342°
2026-04-26 16:43 47.25250 7.30577 12317 ft 357 kts 341°
2026-04-26 16:43 47.27618 7.29550 12988 ft 361 kts 341°
2026-04-26 16:43 47.29980 7.28294 13634 ft 363 kts 333°
2026-04-26 16:44 47.32145 7.26389 14268 ft 363 kts 321°
2026-04-26 16:44 47.34073 7.23982 14888 ft 364 kts 317°
2026-04-26 16:44 47.35982 7.21502 15481 ft 367 kts 317°
2026-04-26 16:44 47.37908 7.19009 16097 ft 369 kts 317°
2026-04-26 16:45 47.39810 7.16441 16673 ft 371 kts 312°
2026-04-26 16:45 47.41412 7.13450 17249 ft 373 kts 302°
2026-04-26 16:45 47.42683 7.10104 17816 ft 375 kts 298°
2026-04-26 16:45 47.43925 7.06703 18110 ft 377 kts 298°
2026-04-26 16:46 47.45188 7.03252 18168 ft 389 kts 298°
2026-04-26 16:46 47.46492 6.99702 18168 ft 396 kts 298°
2026-04-26 16:46 47.47812 6.96108 18166 ft 398 kts 298°
2026-04-26 16:46 47.49133 6.92515 18165 ft 398 kts 298°
2026-04-26 16:47 47.50457 6.88908 18164 ft 398 kts 298°
2026-04-26 16:47 47.51774 6.85304 18165 ft 399 kts 298°
2026-04-26 16:47 47.53089 6.81694 18165 ft 398 kts 298°
2026-04-26 16:47 47.54533 6.78192 18164 ft 398 kts 307°
2026-04-26 16:48 47.56394 6.75164 18166 ft 399 kts 317°
2026-04-26 16:48 47.58630 6.72736 18165 ft 400 kts 329°
2026-04-26 16:48 47.61164 6.71019 18164 ft 402 kts 340°
2026-04-26 16:48 47.63838 6.69813 18167 ft 401 kts 342°
2026-04-26 16:49 47.66513 6.68619 18170 ft 401 kts 342°
2026-04-26 16:49 47.69182 6.67419 18170 ft 401 kts 342°
2026-04-26 16:49 47.71848 6.66214 18171 ft 401 kts 342°
2026-04-26 16:49 47.74518 6.65012 18169 ft 401 kts 342°
2026-04-26 16:50 47.77185 6.63813 18165 ft 400 kts 342°
2026-04-26 16:50 47.79855 6.62611 18165 ft 400 kts 342°
2026-04-26 16:50 47.82520 6.61409 18178 ft 400 kts 342°
2026-04-26 16:50 47.85185 6.60206 18180 ft 400 kts 342°
2026-04-26 16:51 47.87843 6.59005 18183 ft 400 kts 342°
2026-04-26 16:51 47.90468 6.57814 18183 ft 399 kts 342°
2026-04-26 16:51 47.93146 6.56741 18181 ft 400 kts 348°
2026-04-26 16:51 47.95892 6.56078 18183 ft 400 kts 349°
2026-04-26 16:52 47.98641 6.55428 18179 ft 400 kts 349°
2026-04-26 16:52 48.00495 6.54987 18179 ft 400 kts 349°
2026-04-26 16:52 48.04132 6.54117 18189 ft 400 kts 349°
2026-04-26 16:52 48.06882 6.53459 18189 ft 399 kts 349°
2026-04-26 16:53 48.09626 6.52799 18190 ft 399 kts 349°
2026-04-26 16:53 48.12366 6.52138 18189 ft 399 kts 349°
2026-04-26 16:53 48.15111 6.51473 18192 ft 399 kts 349°
2026-04-26 16:53 48.17847 6.50811 18191 ft 399 kts 349°
2026-04-26 16:54 48.20593 6.50148 18189 ft 399 kts 349°
2026-04-26 16:54 48.23331 6.49488 18191 ft 399 kts 349°
2026-04-26 16:54 48.26070 6.48828 18203 ft 399 kts 349°
2026-04-26 16:54 48.28815 6.48165 18201 ft 399 kts 349°
2026-04-26 16:55 48.31551 6.47502 18202 ft 399 kts 349°
2026-04-26 16:55 48.34292 6.46839 18199 ft 399 kts 349°
2026-04-26 16:55 48.37028 6.46175 18198 ft 399 kts 349°
2026-04-26 16:55 48.39767 6.45509 18195 ft 398 kts 349°
2026-04-26 16:56 48.45249 6.44183 18196 ft 398 kts 349°
2026-04-26 16:56 48.47985 6.43517 18201 ft 398 kts 349°
2026-04-26 16:56 48.50720 6.42847 18200 ft 398 kts 349°
2026-04-26 16:57 48.53451 6.42176 18201 ft 398 kts 349°
2026-04-26 16:57 48.56181 6.41509 18200 ft 398 kts 349°
2026-04-26 16:57 48.61606 6.40181 18196 ft 397 kts 349°
2026-04-26 16:58 48.64370 6.39507 18194 ft 397 kts 351°
2026-04-26 16:58 48.66184 6.39267 18192 ft 398 kts 357°
2026-04-26 16:58 48.72630 6.39817 18191 ft 399 kts
2026-04-26 16:59 48.75402 6.40101 18191 ft 400 kts
2026-04-26 16:59 48.80952 6.40663 18193 ft 400 kts
2026-04-26 17:00 48.86512 6.41233 18214 ft 400 kts
2026-04-26 17:00 48.92053 6.41797 18228 ft 400 kts
2026-04-26 17:00 48.94832 6.42077 18227 ft 400 kts
2026-04-26 17:01 48.97613 6.42358 18229 ft 401 kts
2026-04-26 17:01 49.00399 6.42643 18228 ft 401 kts
2026-04-26 17:01 49.03182 6.42927 18226 ft 401 kts
2026-04-26 17:01 49.05965 6.43212 18225 ft 401 kts
2026-04-26 17:02 49.08751 6.43499 18224 ft 401 kts
2026-04-26 17:02 49.11534 6.43417 18220 ft 399 kts 352°
2026-04-26 17:02 49.14249 6.42602 18222 ft 397 kts 343°
2026-04-26 17:02 49.16921 6.41492 18216 ft 398 kts 344°
2026-04-26 17:03 49.19593 6.40393 18206 ft 398 kts 344°
2026-04-26 17:03 49.22273 6.39297 18196 ft 398 kts 344°
2026-04-26 17:03 49.24953 6.38199 18197 ft 399 kts 344°
2026-04-26 17:03 49.27633 6.37095 18197 ft 399 kts 344°
2026-04-26 17:04 49.30310 6.35989 18200 ft 399 kts 344°
2026-04-26 17:04 49.32992 6.34884 18203 ft 399 kts 344°
2026-04-26 17:04 49.35678 6.33779 18215 ft 399 kts 344°
2026-04-26 17:04 49.38360 6.32676 18211 ft 399 kts 344°
2026-04-26 17:05 49.41045 6.31567 18209 ft 400 kts 344°
2026-04-26 17:05 49.43733 6.30451 18215 ft 400 kts 344°
2026-04-26 17:05 49.46420 6.29330 18215 ft 400 kts 344°
2026-04-26 17:05 49.49109 6.28227 18217 ft 400 kts 346°
2026-04-26 17:06 49.51871 6.27630 18215 ft 402 kts 356°
2026-04-26 17:06 49.54665 6.27693 18227 ft 402 kts
2026-04-26 17:06 49.57456 6.27849 18233 ft 401 kts
2026-04-26 17:06 49.60253 6.27998 18236 ft 401 kts 360°
2026-04-26 17:07 49.63026 6.27749 18236 ft 399 kts 350°
2026-04-26 17:07 49.65718 6.26734 18232 ft 398 kts 340°
2026-04-26 17:07 49.68266 6.25086 18235 ft 397 kts 335°
2026-04-26 17:07 49.70765 6.23377 18227 ft 397 kts 335°
2026-04-26 17:08 49.73298 6.21662 18225 ft 398 kts 336°
2026-04-26 17:08 49.75842 6.19947 18223 ft 397 kts 336°
2026-04-26 17:08 49.78376 6.18237 18219 ft 397 kts 336°
2026-04-26 17:08 49.80907 6.16528 18218 ft 397 kts 336°
2026-04-26 17:09 49.83441 6.14810 18217 ft 397 kts 335°
2026-04-26 17:09 49.85117 6.13682 18217 ft 397 kts 337°
2026-04-26 17:09 49.88668 6.12079 18211 ft 398 kts 346°
2026-04-26 17:09 49.91375 6.11138 18211 ft 399 kts 346°
2026-04-26 17:10 49.94084 6.10194 18215 ft 399 kts 346°
2026-04-26 17:10 49.96790 6.09245 18215 ft 399 kts 346°
2026-04-26 17:10 49.99501 6.08287 18219 ft 399 kts 346°
2026-04-26 17:10 50.02209 6.07327 18220 ft 399 kts 346°
2026-04-26 17:11 50.04919 6.06363 18227 ft 399 kts 346°
2026-04-26 17:11 50.07592 6.05412 18229 ft 399 kts 346°
2026-04-26 17:11 50.10300 6.04450 18231 ft 399 kts 346°
2026-04-26 17:11 50.13008 6.03491 18238 ft 399 kts 346°
2026-04-26 17:12 50.18421 6.01571 18246 ft 399 kts 346°
2026-04-26 17:12 50.21127 6.00607 18246 ft 399 kts 346°
2026-04-26 17:13 50.26536 5.98685 18246 ft 398 kts 346°
2026-04-26 17:13 50.29241 5.97723 18249 ft 398 kts 346°
2026-04-26 17:13 50.34643 5.95797 18248 ft 398 kts 346°
2026-04-26 17:14 50.37342 5.94830 18255 ft 397 kts 346°
2026-04-26 17:14 50.42732 5.92891 18252 ft 397 kts 346°
2026-04-26 17:14 50.45429 5.91924 18259 ft 397 kts 346°
2026-04-26 17:15 50.50819 5.89989 18262 ft 397 kts 346°
2026-04-26 17:15 50.53511 5.89013 18263 ft 397 kts 346°
2026-04-26 17:15 50.56200 5.88035 18265 ft 396 kts 346°
2026-04-26 17:16 50.58842 5.87076 18184 ft 381 kts 346°
2026-04-26 17:16 50.61350 5.85950 17860 ft 371 kts 337°
2026-04-26 17:16 50.63601 5.84063 17377 ft 365 kts 324°
2026-04-26 17:16 50.65494 5.81498 16872 ft 363 kts 313°
2026-04-26 17:17 50.67002 5.78329 16362 ft 361 kts 301°
2026-04-26 17:17 50.68164 5.74822 15860 ft 360 kts 297°
2026-04-26 17:17 50.69291 5.71316 15384 ft 357 kts 297°
2026-04-26 17:17 50.70410 5.67827 14903 ft 355 kts 297°
2026-04-26 17:18 50.71523 5.64363 14449 ft 353 kts 297°
2026-04-26 17:18 50.72628 5.60914 13968 ft 351 kts 297°
2026-04-26 17:18 50.73728 5.57473 13423 ft 350 kts 297°
2026-04-26 17:18 50.74818 5.54054 12900 ft 347 kts 297°
2026-04-26 17:19 50.76974 5.47281 11906 ft 342 kts 297°
2026-04-26 17:19 50.78037 5.43937 11399 ft 340 kts 296°
2026-04-26 17:19 50.79093 5.40611 10948 ft 336 kts 296°
2026-04-26 17:20 50.80122 5.37369 10823 ft 323 kts 296°
2026-04-26 17:20 50.80446 5.36349 10776 ft 319 kts 296°
2026-04-26 17:20 50.81727 5.32310 10609 ft 293 kts 296°
2026-04-26 17:20 50.82903 5.28597 10188 ft 282 kts 296°
2026-04-26 17:21 50.83775 5.25843 9887 ft 278 kts 296°
2026-04-26 17:21 50.84637 5.23111 9542 ft 276 kts 296°
2026-04-26 17:21 50.85489 5.20400 9176 ft 275 kts 296°
2026-04-26 17:21 50.86337 5.17700 8805 ft 273 kts 296°
2026-04-26 17:22 50.86908 5.15883 8542 ft 273 kts 296°
2026-04-26 17:22 50.87753 5.13190 8119 ft 273 kts 296°
2026-04-26 17:22 50.88581 5.10486 7770 ft 271 kts 295°
2026-04-26 17:22 50.89385 5.07795 7415 ft 269 kts 294°
2026-04-26 17:23 50.90174 5.05120 6984 ft 266 kts 294°
2026-04-26 17:23 50.90956 5.02469 6326 ft 265 kts 295°
2026-04-26 17:23 50.91739 4.99816 5658 ft 265 kts 295°
2026-04-26 17:23 50.92518 4.97179 5030 ft 264 kts 295°
2026-04-26 17:24 50.93292 4.94565 4407 ft 260 kts 296°
2026-04-26 17:24 50.94052 4.92007 3793 ft 259 kts 296°
2026-04-26 17:24 50.94795 4.89500 3586 ft 241 kts 296°
2026-04-26 17:24 50.95490 4.87142 3440 ft 231 kts 296°
2026-04-26 17:25 50.96161 4.84866 3311 ft 224 kts 296°
2026-04-26 17:25 50.96813 4.82652 3174 ft 218 kts 297°
2026-04-26 17:25 50.97444 4.80505 3045 ft 212 kts 297°
2026-04-26 17:25 50.98054 4.78406 2917 ft 207 kts 294°
2026-04-26 17:26 50.98324 4.76234 2814 ft 197 kts 271°
2026-04-26 17:26 50.98088 4.74154 2676 ft 188 kts 249°
2026-04-26 17:26 50.97565 4.72296 2539 ft 181 kts 246°
2026-04-26 17:26 50.97053 4.70503 2407 ft 176 kts 246°
2026-04-26 17:27 50.96555 4.68758 2264 ft 171 kts 246°
2026-04-26 17:27 50.96069 4.67060 2141 ft 167 kts 247°
2026-04-26 17:27 50.95595 4.65404 2072 ft 164 kts 247°
2026-04-26 17:27 50.95250 4.63674 2409 ft 173 kts 262°
2026-04-26 17:28 50.95140 4.61718 2992 ft 176 kts 272°
2026-04-26 17:28 50.95097 4.59806 3223 ft 166 kts 275°
2026-04-26 17:28 50.95367 4.58082 3606 ft 160 kts 299°
2026-04-26 17:28 50.96063 4.56740 3984 ft 158 kts 325°
2026-04-26 17:29 50.97038 4.55993 4328 ft 157 kts 345°
2026-04-26 17:29 50.97742 4.55703 4410 ft 157 kts 348°
2026-04-26 17:29 50.99177 4.55332 4527 ft 156 kts 354°
2026-04-26 17:29 51.00262 4.55244 4613 ft 157 kts 360°
2026-04-26 17:30 51.01360 4.55119 4464 ft 165 kts 338°
2026-04-26 17:30 51.02247 4.53769 3418 ft 207 kts 292°
2026-04-26 17:30 51.02731 4.51592 3289 ft 206 kts 291°
2026-04-26 17:30 51.03229 4.49456 3430 ft 206 kts 291°
2026-04-26 17:31 51.03465 4.47236 3327 ft 206 kts 258°
2026-04-26 17:31 51.02715 4.45373 3198 ft 205 kts 212°
2026-04-26 17:31 51.01418 4.44407 3078 ft 209 kts 202°
2026-04-26 17:31 51.00075 4.43509 2947 ft 210 kts 202°
2026-04-26 17:32 50.98736 4.42613 2992 ft 209 kts 201°
2026-04-26 17:32 50.97391 4.41715 3002 ft 211 kts 201°
2026-04-26 17:32 50.96102 4.40619 3004 ft 211 kts 220°
2026-04-26 17:32 50.95102 4.38924 3017 ft 210 kts 229°
2026-04-26 17:33 50.94154 4.37195 3009 ft 211 kts 234°
2026-04-26 17:33 50.93407 4.35207 3009 ft 209 kts 242°
2026-04-26 17:33 50.92720 4.33177 3008 ft 209 kts 242°
2026-04-26 17:34 50.91361 4.29123 3010 ft 209 kts 243°
2026-04-26 17:34 50.90682 4.27089 3011 ft 209 kts 243°
2026-04-26 17:34 50.90001 4.25048 3016 ft 210 kts 243°
2026-04-26 17:34 50.89313 4.22997 3011 ft 210 kts 243°
2026-04-26 17:35 50.88630 4.20962 3010 ft 209 kts 242°
2026-04-26 17:35 50.87951 4.18926 3011 ft 210 kts 243°
2026-04-26 17:35 50.87269 4.16885 3018 ft 208 kts 242°
2026-04-26 17:35 50.86593 4.14856 3013 ft 208 kts 243°
2026-04-26 17:36 50.85914 4.12827 3014 ft 209 kts 243°
2026-04-26 17:36 50.85228 4.10785 3018 ft 210 kts 243°
2026-04-26 17:36 50.84545 4.08749 3011 ft 210 kts 243°
2026-04-26 17:36 50.83854 4.06707 3004 ft 210 kts 243°
2026-04-26 17:37 50.83152 4.04684 3017 ft 210 kts 237°
2026-04-26 17:37 50.82097 4.03129 3011 ft 208 kts 206°
2026-04-26 17:37 50.80708 4.02623 3024 ft 207 kts 174°
2026-04-26 17:38 50.78430 4.04830 3010 ft 189 kts 115°
2026-04-26 17:38 50.78087 4.06700 3003 ft 169 kts 89°
2026-04-26 17:38 50.78248 4.08434 3000 ft 154 kts 67°
2026-04-26 17:38 50.78783 4.09848 3007 ft 148 kts 47°
2026-04-26 17:39 50.79462 4.11076 3005 ft 148 kts 49°
2026-04-26 17:39 50.80133 4.12310 3010 ft 148 kts 51°
2026-04-26 17:39 50.80678 4.13681 3013 ft 146 kts 64°
2026-04-26 17:39 50.81096 4.15147 3006 ft 147 kts 64°
2026-04-26 17:40 50.81518 4.16618 3016 ft 147 kts 65°
2026-04-26 17:40 50.81798 4.17594 3014 ft 148 kts 64°
2026-04-26 17:40 50.82366 4.19570 3009 ft 147 kts 64°
2026-04-26 17:40 50.82787 4.21035 3012 ft 145 kts 64°
2026-04-26 17:41 50.83207 4.22501 3014 ft 147 kts 65°
2026-04-26 17:41 50.83630 4.23977 3010 ft 148 kts 65°
2026-04-26 17:41 50.84058 4.25459 2987 ft 149 kts 64°
2026-04-26 17:41 50.84499 4.26969 2742 ft 151 kts 64°
2026-04-26 17:42 50.84943 4.28489 2518 ft 152 kts 64°
2026-04-26 17:42 50.85387 4.30008 2309 ft 152 kts 64°
2026-04-26 17:42 50.85816 4.31483 2124 ft 143 kts 64°
2026-04-26 17:42 50.86224 4.32881 1919 ft 139 kts 64°
2026-04-26 17:43 50.86624 4.34256 1735 ft 137 kts 64°
2026-04-26 17:43 50.87019 4.35619 1541 ft 137 kts 64°
2026-04-26 17:43 50.87415 4.36986 1370 ft 136 kts 64°
2026-04-26 17:43 50.87809 4.38348 1183 ft 135 kts 64°
2026-04-26 17:44 50.88199 4.39699 1010 ft 135 kts 64°
2026-04-26 17:44 50.88588 4.41043 818 ft 134 kts 63°
2026-04-26 17:44 50.88972 4.42390 648 ft 133 kts 64°
2026-04-26 17:44 50.89363 4.43708 515 ft 134 kts 63°
2026-04-26 17:45 50.89751 4.45071 328 ft 137 kts 65°
2026-04-26 17:45 50.90142 4.46427 183 ft 136 kts 64°
2026-04-26 17:45 50.90509 4.47680 140 ft 104 kts 66°
2026-04-26 17:45 50.90739 4.48480 134 ft 55 kts 66°
2026-04-26 17:46 50.90864 4.48918 134 ft 42 kts 65°
2026-04-26 17:46 50.90975 4.49328 133 ft 36 kts 74°
2026-04-26 17:46 50.90963 4.49659 122 ft 21 kts 133°
2026-04-26 17:46 50.90893 4.49649 126 ft 7 kts 236°
2026-04-26 17:47 50.90867 4.49569 128 ft 9 kts 245°
2026-04-26 17:47 50.90846 4.49498 127 ft 13 kts 245°
2026-04-26 17:47 50.90779 4.49266 131 ft 20 kts 246°
2026-04-26 17:47 50.90700 4.49115 129 ft 16 kts 174°
2026-04-26 17:48 50.90625 4.49010 128 ft 15 kts 244°
2026-04-26 17:48 50.90587 4.48876 128 ft 12 kts 246°
2026-04-26 17:48 50.90546 4.48800 129 ft 8 kts 180°
2026-04-26 17:48 50.90506 4.48826 132 ft 5 kts 157°
2026-04-26 17:49 50.90483 4.48842 132 ft 1 kts 156°
2026-04-26 17:49 50.90482 4.48842 132 ft 0 kts 156°